Meteo Giornale » Osservazioni meteo Repubblica Ceca » Karlovy Vary

ore: 16:00 - Osservazioni Meteo Karlovy Vary
Lat. 50° 12' N Lon. 12° 55' E Alt. 603 metri s.l.m.

nuvoloso

20 °C

Nuvoloso

Temp. 24 Ore

13 °C

21 °C

Sud-Ovest

13 Km/h

Dew point 9 °C

Umidità 49 %

Visibilità  10 Km

Il sole sorge alle ore 06:23

Il sole tramonta alle ore 19:53

Data e Ora Cielo e Fenomeni T °C DP °C Um. % Pres. hPa Vis. km Vento km/h
Oggi h: 16:00 nuvoloso Nuvoloso 20 9 49 1021 10 SO 13
Oggi h: 15:30 nuvoloso Nuvoloso 20 8 45 1021 10 SO 18.5
Oggi h: 15:00 nuvoloso Nuvoloso 19 9 52 1021 10 O/SO 13
Oggi h: 14:30 nuvoloso Nuvoloso 19 9 52 1022 10 O/SO 14.8
Oggi h: 14:00 nuvoloso Nuvoloso 19 9 52 1022 10 O/SO 14.8
Oggi h: 13:30 nuvoloso Nuvoloso 18 10 59 1022 10 O/SO 11.1
Oggi h: 13:00 molto_nuvoloso Molto Nuvoloso 18 9 55 1021 10 O/SO 22.2
Oggi h: 12:30 molto_nuvoloso Molto Nuvoloso 18 9 55 1021 10 O/SO 18.5
Oggi h: 12:00 molto_nuvoloso Molto Nuvoloso 18 10 59 1021 10 O 18.5
Oggi h: 11:30 molto_nuvoloso Molto Nuvoloso 17 10 63 1021 10 O/SO 16.7
Oggi h: 11:00 nuvoloso Nuvoloso 17 10 63 1021 10 O/SO 16.7
Oggi h: 10:30 molto_nuvoloso Molto Nuvoloso 16 10 67 1021 10 O/SO 16.7
Oggi h: 10:00 nuvoloso Nuvoloso 15 10 72 1021 10 O/SO 16.7
Oggi h: 09:30 nuvoloso Nuvoloso 14 10 76 1021 10 O 16.7
Oggi h: 09:00 nuvoloso Nuvoloso 14 10 76 1021 10 O 13
Oggi h: 08:30 nuvoloso Nuvoloso 14 10 76 1021 10 O 14.8
Oggi h: 08:00 nuvoloso Nuvoloso 13 10 81 1021 10 O 18.5
Oggi h: 07:00 nuvoloso Nuvoloso 13 11 87 1020 10 O 14.8
Oggi h: 06:00 molto_nuvoloso Molto Nuvoloso 14 11 82 1020 10 O 14.8
Oggi h: 05:00 molto_nuvoloso Molto Nuvoloso 13 11 87 1019 10 O/SO 13
Oggi h: 04:00 coperto Coperto 14 10 76 1019 10 N 5.5
Oggi h: 03:00 coperto Coperto 14 10 76 1019 10 O/SO 9.3
Oggi h: 02:00 molto_nuvoloso Molto Nuvoloso 14 11 82 1019 10 O/SO 14.8
Oggi h: 01:00 poco_nuvoloso Poco Nuvoloso 14 11 82 1018 10 O/SO 13
Oggi h: 00:00 molto_nuvoloso Molto Nuvoloso 15 10 72 1018 10 O/SO 13
Ieri h: 23:00 poco_nuvoloso Poco Nuvoloso 16 9 63 1018 10 O/SO 11.1
Ieri h: 22:00 sereno Sereno 18 9 55 1017 10 O 20.3
Ieri h: 21:00 sereno Sereno 17 8 55 1017 10 N 5.5
Ieri h: 20:30 sereno Sereno 18 8 51 1016 10 O/SO 11.1
Ieri h: 20:00 sereno Sereno 18 9 55 1016 10 O 14.8
Ieri h: 19:30 sereno Sereno 19 10 55 1016 10 O/SO 13
Ieri h: 19:00 sereno Sereno 20 10 52 1016 10 O 14.8
Ieri h: 18:30 sereno Sereno 20 9 49 1016 10 O/SO 18.5
Ieri h: 18:00 nuvoloso Nuvoloso 20 10 52 1016 10 SO 14.8
Ieri h: 17:30 poco_nuvoloso Poco Nuvoloso 21 10 49 1016 10 SO 18.5
Ieri h: 17:00 poco_nuvoloso Poco Nuvoloso 21 10 49 1016 10 O/SO 14.8